Tracking 19212 objects as of 17-Jul-2018
HD Live streaming from Space Station
objects crossing your sky now

FENGYUN 1C DEB

Track FENGYUN 1C DEB now!
10-day predictions


NORAD ID: 31738
Int'l Code: 1999-025CEM
Perigee: 742.2 km
Apogee: 1,236.0 km
Inclination: 99.6 °
Period: 104.7 minutes
Semi major axis: 7360 km
RCS: 0.0147 m2 (small)
Launch date: May 10, 1999
Source: People's Republic of China (PRC)
Launch site: Taiyaun Space Center, China (TSC)

Note: This is SATELLITE DEBRIS
aabbcc
Your satellite tracking list
Your tracking list is empty




NASA's NSSDC Master Catalog

Two Line Element Set (TLE):
1 31738U 99025CEM 18195.89982720  .00000018  00000-0  44175-4 0  9990
2 31738  99.5892 228.2744 0335447  15.7715 345.3584 13.74909346558935
Source of the keplerian elements: AFSPC